Location: Campolattaro
(41.2833°N, 14.7333°E)
Time: 18:30:56
(UTC+00:00)

Daily predictions for brighter satellites

Satellite Brightness Start Highest point End
(mag) Time Altitude Azimuth Time Altitude Azimuth Time Altitude Azimuth
Cosmos 1833 Rocket 4.0 18:40:55 10° SE 18:44:52 20° E 18:48:51 10° NE
CZ-4B R/B 3.7 18:41:33 10° SE 18:45:13 33° ENE 18:48:48 10° N
Cosmos 1726 Rocket 4.1 18:44:40 10° SSE 18:48:45 38° E 18:52:51 10° NNE
Cosmos 1782 3.0 18:45:31 10° SSE 18:48:59 43° E 18:52:30 10° NNE
DELTA 2 R/B (1) 4.5 18:45:12 10° SSW 18:49:52 28° SSE 18:54:33 10° E
CZ-4 R/B 1.6 18:48:26 10° S 18:52:23 74° W 18:56:20 10° NNW
Cosmos 1937 Rocket 3.7 18:47:35 10° NNW 18:52:45 77° WSW 18:57:51 10° SSE
SL-08 R/B 3.7 18:54:38 10° N 18:59:31 74° WNW 19:04:17 10° SSW
Okean 1-7 Rocket 3.6 18:57:18 10° N 19:01:40 84° W 19:06:02 10° S
CZ-2C R/B 4.2 19:00:31 10° SSW 19:03:29 30° W 19:06:30 10° NNW
Cosmos 2058 Rocket 4.1 19:00:18 10° SSE 19:04:06 28° E 19:07:55 10° NNE
USA 186 1.6 19:02:14 10° S 19:04:56 71° W 19:07:41 10° NNW
Cosmos 1825 Rocket 3.5 19:02:10 10° N 19:06:27 64° E 19:10:41 10° SSE
Geosat 4.1 19:04:57 10° NNE 19:09:58 86° WNW 19:14:58 10° SSW
PAYLOAD B 4.4 19:04:28 10° S 19:10:02 77° WSW 19:15:40 10° NNW
Cosmos 1602 Rocket 4.4 19:06:30 10° NNW 19:10:42 50° W 19:14:51 10° SSW
Cosmos 1980 Rocket 4.5 19:09:51 10° NNE 19:10:54 10° NE 19:11:58 10° NE
USA 234 3.3 19:07:43 10° NE 19:14:10 60° SE 19:20:37 10° SSW
Resurs 01 Rocket 3.5 19:10:44 10° SSW 19:14:34 30° W 19:18:25 10° NW
Helios 1A 3.2 19:10:58 10° NNE 19:14:51 44° E 19:18:40 10° S
Terra 2.6 19:11:25 12° SE 19:15:12 34° ENE 19:19:26 10° N
Cosmos 2151 3.0 19:11:49 10° N 19:16:00 79° W 19:20:11 10° S
Helios 1B rocket 2.1 19:13:52 10° SSE 19:17:31 87° ENE 19:21:12 10° NNW
ATLAS CENTAUR R/B 1.1 19:14:45 10° SSW 19:18:16 54° ESE 19:21:58 10° NE
Cosmos 2344 4.3 19:12:31 10° SW 19:20:10 56° NW 19:27:18 10° NNE
Cosmos 1295 Rocket 4.4 19:16:07 10° N 19:22:15 77° E 19:28:19 10° SSE
MOS 1-B 4.4 19:16:37 10° SSE 19:22:22 72° ENE 19:28:10 10° N
Cosmos 1606 Rocket 4.1 19:19:29 10° SSW 19:23:51 61° W 19:28:15 10° N
CZ-4B R/B 3.5 19:21:43 10° S 19:27:14 71° WSW 19:32:41 10° NNW
BlueWalker 3 4.1 19:30:07 10° NNW 19:32:46 19° NNE 19:35:25 10° ENE
Cosmos 1400 Rocket 2.5 19:30:09 10° S 19:33:50 81° E 19:37:31 10° NNE
Meteor 1-20 Rocket 4.4 19:29:26 10° NNW 19:35:15 80° W 19:41:05 10° S
CZ-4B R/B 3.9 19:33:05 10° S 19:37:45 58° WSW 19:42:32 10° NNW
Cosmos 1346 Rocket 3.6 19:35:13 10° NNE 19:38:32 30° ENE 19:39:57 23° ESE
Ariane Rocket 4.3 19:36:54 16° ESE 19:39:39 26° ENE 19:43:47 10° N
CZ-4C R/B 3.1 19:32:42 10° NW 19:40:07 87° SW 19:47:14 17° SSE
Cosmos 1953 Rocket 3.6 19:39:01 10° N 19:43:30 84° W 19:47:08 15° S
Cosmos 1697 Rocket 3.6 19:39:01 10° N 19:44:12 35° ENE 19:47:33 19° ESE
SPOT 5 3.6 19:45:35 10° S 19:49:45 43° W 19:53:52 10° NNW
Meteor 1-25 Rocket 4.3 19:44:41 10° NNW 19:50:14 76° W 19:55:07 14° S
Cosmos 2074 Rocket 4.4 19:44:37 10° NNW 19:50:45 64° W 19:56:51 10° S
Lacrosse 5 rocket 2.5 19:47:46 10° NNW 19:50:50 27° NE 19:52:35 18° E
Cosmos-2242 2.9 19:51:08 19° S 19:54:05 66° E 19:58:19 10° NNE
Nadezhda 1 Rocket 4.0 19:48:04 10° S 19:54:07 84° W 20:00:19 10° N
Alouette 2 Rocket 4.4 19:54:45 10° NNW 19:58:23 46° W 20:02:45 12° S
SeaSat 1 4.3 19:57:02 13° E 19:59:46 19° NE 20:03:12 10° N
Cosmos 1656 3.9 19:54:33 10° NNW 20:00:07 66° WSW 20:03:55 20° S
Cosmos 2082 Rocket 3.5 20:00:19 19° ESE 20:00:28 19° E 20:04:20 10° NE
Cosmos 2154 Rocket 4.3 19:54:32 10° NNW 20:00:40 65° W 20:06:35 11° S
Okean O Rocket 2.4 19:57:22 13° S 20:01:01 47° W 20:05:14 10° NNW
Cosmos 1933 4.1 19:57:28 10° SSW 20:01:12 47° W 20:04:57 10° N
Cosmos 2221 3.9 20:01:07 20° E 20:01:13 20° E 20:04:18 10° NE
Cosmos 2341 Rocket 4.4 19:57:13 10° N 20:03:14 48° ENE 20:06:24 27° SE
SPOT 3 Rocket 3.9 20:02:59 27° SE 20:05:23 48° ENE 20:10:18 10° N
Okean-O 3.0 20:03:33 20° S 20:06:30 59° W 20:10:51 10° NNW
Iridium 4 Rocket 4.1 20:03:02 10° N 20:08:08 61° W 20:13:16 12° SSW
ERS-1 Rocket 3.3 20:04:49 18° S 20:08:30 61° W 20:13:28 10° NNW
Cosmos 773 Rocket 4.5 20:11:34 32° SE 20:12:56 38° ESE 20:17:39 10° NE
Cosmos 1743 3.7 20:16:39 10° NNW 20:19:50 36° W 20:21:21 23° SW
Spot 2 Rocket 3.5 20:17:40 29° S 20:20:16 81° WSW 20:25:20 10° NNW
Cosmos 2084 Rocket 3.3 20:16:12 10° SSW 20:20:29 85° SE 20:24:44 10° NE
ISS -1.4 20:18:50 10° NNW 20:21:23 19° NNE 20:23:18 13° ENE
NOSS 3-1 (C) 3.0 20:17:45 10° SW 20:22:21 76° NW 20:27:51 10° NNE
Cosmos 1833 Rocket 3.3 20:22:44 10° SW 20:28:16 57° WNW 20:33:50 10° NNE
Cosmos 1356 Rocket 3.2 20:28:39 50° S 20:29:39 77° E 20:33:46 10° NNE
SL-24 R/B 4.4 20:30:53 46° S 20:32:05 81° WSW 20:36:13 10° NNW
DELTA 2 R/B (1) 3.5 20:30:16 10° WSW 20:35:44 63° SSE 20:38:25 30° E
Cosmos 1733 3.1 20:33:08 10° NNW 20:36:07 56° W 20:36:07 56° W
USA 245 4.1 20:35:19 34° SSW 20:36:45 52° W 20:41:28 10° NNW
Cosmos 1821 Rocket 4.3 20:32:45 10° N 20:38:38 48° ENE 20:40:29 37° ESE
Cosmos 1900 4.3 20:36:57 10° NNW 20:42:05 88° WSW 20:43:28 50° SSE
Cosmos 2218 Rocket 3.9 20:37:06 10° N 20:43:29 81° E 20:46:01 39° SSE
SWARM A 4.5 20:48:26 70° NW 20:48:26 70° NW 20:51:33 10° N
PSLV R/B 4.0 20:49:41 47° W 20:49:41 47° W 20:52:37 10° NNW
Cosmos 1812 Rocket 3.5 20:48:57 53° SSW 20:49:53 77° W 20:54:12 10° N
Cosmos 1805 4.3 20:48:19 10° N 20:50:42 30° NE 20:50:42 30° NE
NOSS 3-1 (A) 2.7 20:50:27 45° SSW 20:51:55 77° ESE 20:57:22 10° NE
Terra 3.6 20:50:03 15° SW 20:52:46 24° W 20:56:35 10° NW
ATLAS CENTAUR R/B 4.3 20:52:29 10° W 20:54:45 15° NW 20:57:03 10° N
Cosmos 1315 Rocket 2.7 20:55:12 74° WSW 20:55:23 76° W 20:59:17 10° N
Cosmos 1980 Rocket 2.4 20:50:34 10° NNW 20:56:07 60° ENE 20:57:27 47° ESE
USA 234 4.3 20:50:53 10° NE 20:57:02 46° NNW 21:03:12 10° W
Cosmos 2208 Rocket 4.5 20:55:03 20° SW 20:58:44 62° WNW 21:04:02 10° NNE
Cosmos 1959 Rocket 4.5 20:55:14 10° N 21:01:26 78° W 21:03:44 42° S
Cosmos 2181 Rocket 4.0 20:58:41 34° SSW 21:01:36 81° W 21:07:58 10° N
SL-16 R/B 4.1 21:02:57 10° N 21:06:54 19° NE 21:09:15 15° E
Cosmos 783 Rocket 4.4 21:06:53 61° ESE 21:07:09 62° ESE 21:12:17 10° NNE
DELTA 2 DEB (DPAF) 3.9 21:05:27 10° NNE 21:09:02 73° N 21:09:02 73° N
Meteor 1-11 Rocket 4.1 21:04:57 10° N 21:10:15 46° ENE 21:10:57 44° E
BlueWalker 3 2.5 21:07:19 10° NW 21:10:12 53° NW 21:10:12 53° NW
Meteor 2-10 4.3 21:06:57 10° NNW 21:12:34 66° W 21:13:58 48° SSW
Cosmos 2322 Rocket 4.5 21:12:45 10° NNE 21:15:37 14° NE 21:18:28 10° ENE
Ariane Rocket 4.0 21:16:59 32° SW 21:18:20 38° W 21:23:02 10° NNW
CZ-4C R/B 4.5 21:17:35 10° NNE 21:19:42 32° NNE 21:19:42 32° NNE
Cosmos 1238 Rocket 3.9 21:22:13 34° W 21:22:13 34° W 21:25:22 10° NNW
Meteor 1-14 Rocket 4.2 21:17:06 10° NNW 21:22:44 76° W 21:23:50 58° SSW
Nadezhda 3 Rocket 3.9 21:21:58 58° SSE 21:23:12 76° E 21:29:25 10° N
ARIANE 5 R/B 3.8 21:23:51 31° ENE 21:23:51 31° ENE 21:27:22 10° N
Cosmos 1842 Rocket 4.5 21:25:47 37° NE 21:25:47 37° NE 21:28:51 10° NNE
Cosmos 44 4.1 21:20:59 10° NW 21:25:13 37° WSW 21:25:13 37° WSW
Cosmos 2298 Rocket 4.1 21:22:08 10° NNW 21:27:25 65° WSW 21:27:57 61° SW
Cosmos 1697 Rocket 3.7 21:23:03 10° NW 21:28:04 33° WSW 21:29:17 30° SW
Lacrosse 5 rocket 3.1 21:25:09 10° WNW 21:26:34 20° W 21:26:34 20° W
ATLAS 3B R/B 3.0 21:30:07 50° SE 21:31:01 53° ESE 21:38:28 10° NE
USA 229 DEB 4.5 21:33:23 30° E 21:33:23 30° E 21:37:42 10° NE
USA 229 4.5 21:33:31 29° E 21:33:31 29° E 21:37:46 10° NE
Cosmos 1934 Rocket 4.3 21:28:31 10° N 21:34:38 52° ENE 21:35:32 48° ESE
Cosmos 2360 Rocket 4.3 21:32:00 10° N 21:35:27 16° NE 21:38:04 12° ENE
Cosmos 1339 Rocket 4.4 21:35:54 62° SE 21:36:32 66° E 21:42:32 10° NNE
SeaSat 1 2.5 21:36:40 65° WSW 21:36:41 65° WSW 21:41:35 10° NNW
Cosmos 2221 3.9 21:37:29 28° W 21:38:07 30° WNW 21:41:48 10° NNW
Cosmos 1536 3.8 21:34:40 10° NNW 21:37:32 40° NW 21:37:32 40° NW
Cosmos 2369 3.5 21:35:22 10° NNW 21:41:03 86° ENE 21:41:29 77° SE
Cosmos 1867 4.5 21:36:17 10° NW 21:41:14 36° WSW 21:41:23 36° WSW
Cosmos 405 Rocket 4.4 21:39:55 10° N 21:41:40 27° N 21:41:40 27° N
Cosmos 2082 Rocket 2.6 21:42:05 38° WSW 21:43:59 58° WNW 21:49:33 10° NNE
CZ-2C R/B 4.2 21:40:17 10° NNE 21:43:42 51° NE 21:43:42 51° NE
Timation 1 Rocket 4.4 21:47:15 50° SW 21:48:47 72° WNW 21:54:47 10° NNE
SL-08 R/B 4.4 21:43:46 10° N 21:50:15 84° W 21:51:17 65° S
Cosmos 1932 4.4 21:46:08 10° NW 21:52:36 84° WSW 21:53:27 69° SSE
ISS -1.1 21:55:12 10° NW 21:56:12 18° NW 21:56:12 18° NW
COSMOS 2406 3.3 21:59:10 59° WSW 22:00:03 69° WNW 22:05:46 10° NNE
Okean 3 Rocket 4.1 21:55:38 10° N 21:59:09 55° NNE 21:59:09 55° NNE
Landsat 5 4.4 21:57:13 10° NNE 22:00:10 45° NNE 22:00:10 45° NNE
USA 59 Rocket 2.0 22:10:23 18° N 22:10:23 18° N 22:11:26 10° NNE
MetOp-A 4.1 22:10:43 71° WNW 22:10:43 71° WNW 22:15:35 10° NNW
Cosmos 2333 Rocket 3.2 22:09:37 10° N 22:14:53 36° ENE 22:15:54 34° E
Cosmos 1151 Rocket 4.4 22:19:28 33° NE 22:19:28 33° NE 22:22:02 10° NNE
ALOS 2 3.4 22:19:44 49° NNE 22:19:44 49° NNE 22:23:08 10° N
Cosmos 2219 Rocket 4.0 22:26:08 10° N 22:30:37 24° NE 22:32:39 19° E
Meteor 2-4 Rocket 3.7 22:30:52 77° W 22:30:53 77° W 22:36:42 10° N
Meteor 1-27 Rocket 4.4 22:30:54 41° W 22:31:35 42° WNW 22:36:51 10° N
Cosmos 1727 Rocket 4.4 22:34:09 48° E 22:34:18 48° E 22:40:14 10° NNE
SL-24 R/B - RUBIN 2 4.2 22:37:02 85° S 22:37:11 87° ESE 22:43:11 10° NE
Cosmos 1680 Rocket 4.3 22:39:24 41° ENE 22:39:24 41° ENE 22:43:20 10° NNE
Cosmos 1980 Rocket 4.0 22:35:48 10° WNW 22:39:12 18° W 22:39:12 18° W
Sich 1 4.2 22:35:35 10° NNW 22:38:23 39° NNW 22:38:23 39° NNW
SL-16 R/B 2.3 22:45:55 10° NNW 22:51:04 67° WNW 22:51:04 67° WNW
Cosmos 2322 Rocket 2.2 22:54:54 10° NNW 23:00:24 79° NE 23:00:24 79° NE
Cosmos 1633 Rocket 4.4 22:57:40 10° N 23:00:47 33° NE 23:00:47 33° NE
Cosmos 1066 Rocket 4.4 23:04:56 63° WNW 23:04:56 63° WNW 23:10:34 10° N
Cosmos 1459 Rocket 4.4 23:00:24 10° N 23:06:22 51° ENE 23:07:05 48° E
Cosmos 1000 Rocket 4.5 23:08:01 65° ESE 23:08:13 66° E 23:14:19 10° NNE
Meteor 2-10 Rocket 4.1 23:05:09 10° N 23:10:50 56° ENE 23:11:09 55° E
GP-B 4.1 23:13:24 10° N 23:16:31 42° NNW 23:16:31 42° NNW
Exosat Rocket 4.2 23:14:35 10° NNW 23:18:24 45° WNW 23:18:24 45° WNW
Cosmos 2360 Rocket 2.1 23:14:31 10° NNW 23:19:47 77° NW 23:19:47 77° NW
Cosmos 2173 Rocket 4.0 23:14:49 10° N 23:21:10 71° E 23:21:47 66° ESE
Cosmos 1328 Rocket 4.5 23:23:10 45° NNE 23:23:10 45° NNE 23:26:12 10° N
ATLAS 3B R/B 4.0 23:17:16 20° WSW 23:22:02 40° NW 23:29:20 10° NNE
USA 229 DEB 4.3 23:20:46 35° W 23:22:43 46° NW 23:29:07 10° NNE
USA 229 4.2 23:20:54 36° W 23:22:48 46° NW 23:29:12 10° NNE
ASTEX 1 3.9 23:21:51 10° N 23:26:06 52° NW 23:26:06 52° NW
CENTAUR R/B 3.3 23:18:17 10° NNW 23:26:49 80° NE 23:31:24 35° SE
In-Cosmos 22 4.1 23:31:00 84° WNW 23:31:00 84° WNW 23:36:45 10° N
Cosmos 2123 Rocket 4.0 23:30:43 65° SE 23:31:17 69° E 23:37:35 10° NNE
CZ-2C R/B 4.0 23:27:13 10° NNE 23:32:42 42° E 23:32:58 42° ESE
Cosmos 2112 Rocket 4.3 23:41:12 57° WNW 23:41:12 57° WNW 23:46:13 10° NNE
